JAI83 LEPA-LEIB

Flight info

Callsign JAI83
Flight time 0h 39m
Altitude 7000
Route NELUX
Aircraft C208/L-SDFGR/C

Departure

Time 2026-05-04 17:20
Airport Palma de Mallorca Airport (LEPA)

Arrival

Time 2026-05-04 18:00
Airport Ibiza Airport (LEIB)
Time Latitude Longitude Altitude Speed Heading
2026-05-04 16:28 39.55491 2.73362 32 ft 0 kts 74°
2026-05-04 16:56 39.55493 2.73386 32 ft 7 kts 98°
2026-05-04 16:56 39.55483 2.73525 32 ft 0 kts 56°
2026-05-04 17:09 39.55502 2.73553 33 ft 21 kts 41°
2026-05-04 17:10 39.55491 2.73454 32 ft 14 kts 95°
2026-05-04 17:10 39.55728 2.73663 34 ft 26 kts 56°
2026-05-04 17:11 39.55816 2.73844 35 ft 19 kts 58°
2026-05-04 17:11 39.55893 2.74014 36 ft 25 kts 58°
2026-05-04 17:11 39.56074 2.74288 38 ft 0 kts 32°
2026-05-04 17:16 39.56086 2.74296 38 ft 9 kts 27°
2026-05-04 17:17 39.56147 2.74349 39 ft 1 kts 37°
2026-05-04 17:17 39.56146 2.74349 39 ft 0 kts 37°
2026-05-04 17:19 39.56238 2.74310 38 ft 13 kts 279°
2026-05-04 17:19 39.56209 2.74221 38 ft 0 kts 239°
2026-05-04 17:20 39.55721 2.73178 364 ft 107 kts 236°
2026-05-04 17:20 39.55385 2.72427 1020 ft 81 kts 236°
2026-05-04 17:21 39.54807 2.71216 1925 ft 82 kts 240°
2026-05-04 17:21 39.54160 2.70031 3005 ft 77 kts 235°
2026-05-04 17:22 39.53860 2.69472 3668 ft 74 kts 234°
2026-05-04 17:22 39.53571 2.68927 4278 ft 75 kts 236°
2026-05-04 17:23 39.52711 2.67230 6067 ft 75 kts 236°
2026-05-04 17:23 39.52415 2.66651 6607 ft 79 kts 235°
2026-05-04 17:23 39.51676 2.65174 7008 ft 126 kts 238°
2026-05-04 17:24 39.51170 2.64164 7010 ft 140 kts 237°
2026-05-04 17:24 39.49511 2.60871 7009 ft 147 kts 237°
2026-05-04 17:25 39.48952 2.59767 7007 ft 146 kts 238°
2026-05-04 17:25 39.47843 2.57573 7010 ft 147 kts 238°
2026-05-04 17:26 39.46716 2.55347 7005 ft 147 kts 238°
2026-05-04 17:26 39.45081 2.51982 7006 ft 147 kts 240°
2026-05-04 17:27 39.44083 2.49697 7002 ft 147 kts 241°
2026-05-04 17:27 39.43076 2.47396 7003 ft 147 kts 240°
2026-05-04 17:28 39.42062 2.45084 7002 ft 148 kts 240°
2026-05-04 17:29 39.40549 2.41635 6994 ft 147 kts 240°
2026-05-04 17:29 39.37845 2.40135 6975 ft 168 kts 166°
2026-05-04 17:30 39.34723 2.42343 6978 ft 171 kts 160°
2026-05-04 17:31 39.32623 2.43747 6966 ft 169 kts 163°
2026-05-04 17:31 39.29766 2.43655 6987 ft 144 kts 235°
2026-05-04 17:32 39.28655 2.41491 6993 ft 145 kts 237°
2026-05-04 17:33 39.26994 2.38229 6989 ft 145 kts 237°
2026-05-04 17:33 39.26438 2.37143 6991 ft 145 kts 237°
2026-05-04 17:34 39.24794 2.33892 6988 ft 144 kts 237°
2026-05-04 17:34 39.24246 2.32809 6987 ft 144 kts 238°
2026-05-04 17:35 39.22593 2.29566 6990 ft 145 kts 237°
2026-05-04 17:35 39.21458 2.27382 6982 ft 148 kts 237°
2026-05-04 17:35 39.20871 2.26283 6984 ft 149 kts 237°
2026-05-04 17:36 39.20278 2.25179 6980 ft 150 kts 237°
2026-05-04 17:36 39.19684 2.24071 6981 ft 150 kts 237°
2026-05-04 17:36 39.19089 2.22961 6984 ft 150 kts 237°
2026-05-04 17:36 39.18495 2.21856 6991 ft 150 kts 237°
2026-05-04 17:37 39.17920 2.20742 7001 ft 149 kts 244°
2026-05-04 17:37 39.17454 2.19549 7002 ft 149 kts 241°
2026-05-04 17:37 39.16835 2.18471 6998 ft 151 kts 228°
2026-05-04 17:37 39.16038 2.17582 6997 ft 152 kts 223°
2026-05-04 17:38 39.15203 2.16750 6997 ft 152 kts 221°
2026-05-04 17:38 39.14364 2.15927 6998 ft 152 kts 221°
2026-05-04 17:38 39.13522 2.15104 6999 ft 152 kts 221°
2026-05-04 17:38 39.12681 2.14280 7000 ft 152 kts 221°
2026-05-04 17:39 39.11000 2.12636 6995 ft 152 kts 221°
2026-05-04 17:39 39.10159 2.11812 6993 ft 152 kts 222°
2026-05-04 17:39 39.09322 2.10994 6997 ft 151 kts 221°
2026-05-04 17:40 39.08487 2.10177 7000 ft 150 kts 222°
2026-05-04 17:40 39.07653 2.09363 7001 ft 150 kts 222°
2026-05-04 17:40 39.06820 2.08549 7001 ft 150 kts 221°
2026-05-04 17:40 39.05988 2.07737 7002 ft 150 kts 222°
2026-05-04 17:41 39.05156 2.06924 7002 ft 150 kts 221°
2026-05-04 17:41 39.04326 2.06114 7002 ft 150 kts 222°
2026-05-04 17:41 39.03494 2.05302 7003 ft 150 kts 222°
2026-05-04 17:41 39.02662 2.04489 7003 ft 150 kts 222°
2026-05-04 17:42 39.01827 2.03677 7002 ft 151 kts 222°
2026-05-04 17:42 39.01004 2.02873 7005 ft 150 kts 221°
2026-05-04 17:42 39.00171 2.02062 7003 ft 150 kts 221°
2026-05-04 17:42 38.99341 2.01253 7005 ft 150 kts 221°
2026-05-04 17:43 38.98511 2.00445 7006 ft 150 kts 222°
2026-05-04 17:43 38.97668 1.99624 7006 ft 151 kts 221°
2026-05-04 17:43 38.96843 1.98820 7008 ft 151 kts 222°
2026-05-04 17:43 38.96116 1.97919 6855 ft 140 kts 242°
2026-05-04 17:44 38.96049 1.96654 6219 ft 152 kts 281°
2026-05-04 17:44 38.96423 1.95381 5590 ft 152 kts 287°
2026-05-04 17:44 38.96828 1.94133 4993 ft 149 kts 286°
2026-05-04 17:44 38.97233 1.92925 4291 ft 147 kts 287°
2026-05-04 17:45 38.97646 1.91730 3595 ft 145 kts 286°
2026-05-04 17:45 38.98065 1.90564 3036 ft 138 kts 287°
2026-05-04 17:45 38.98441 1.89581 3000 ft 108 kts 286°
2026-05-04 17:45 38.98766 1.88817 2992 ft 88 kts 287°
2026-05-04 17:46 38.99053 1.88214 2996 ft 72 kts 288°
2026-05-04 17:46 38.99325 1.87618 3276 ft 92 kts 288°
2026-05-04 17:46 38.99668 1.86708 3177 ft 129 kts 286°
2026-05-04 17:46 39.00047 1.85658 3046 ft 130 kts 290°
2026-05-04 17:47 39.00864 1.84948 3021 ft 158 kts 333°
2026-05-04 17:47 39.01937 1.84541 3008 ft 162 kts 334°
2026-05-04 17:47 39.03026 1.84133 3009 ft 163 kts 334°
2026-05-04 17:47 39.04006 1.83524 2987 ft 150 kts 304°
2026-05-04 17:48 39.04279 1.82377 2986 ft 132 kts 256°
2026-05-04 17:48 39.03923 1.81319 2991 ft 126 kts 240°
2026-05-04 17:48 39.03362 1.80488 2992 ft 121 kts 229°
2026-05-04 17:48 39.02898 1.79609 2998 ft 118 kts 241°
2026-05-04 17:49 39.02512 1.78673 2998 ft 119 kts 244°
2026-05-04 17:49 39.02145 1.77721 2997 ft 119 kts 244°
2026-05-04 17:49 39.01871 1.76730 3003 ft 121 kts 266°
2026-05-04 17:49 39.02064 1.75674 3006 ft 124 kts 278°
2026-05-04 17:50 39.02309 1.74609 3007 ft 124 kts 278°
2026-05-04 17:50 39.02356 1.73555 2994 ft 116 kts 248°
2026-05-04 17:50 39.02016 1.72618 2993 ft 115 kts 243°
2026-05-04 17:50 39.01636 1.71713 2994 ft 115 kts 242°
2026-05-04 17:51 39.01243 1.70822 2995 ft 114 kts 242°
2026-05-04 17:51 39.00843 1.69944 2995 ft 114 kts 241°
2026-05-04 17:51 39.00446 1.69067 2994 ft 113 kts 242°
2026-05-04 17:51 39.00055 1.68199 2993 ft 111 kts 241°
2026-05-04 17:52 38.99648 1.67306 3002 ft 123 kts 241°
2026-05-04 17:52 38.99205 1.66301 3006 ft 134 kts 241°
2026-05-04 17:52 38.98741 1.65230 3008 ft 139 kts 241°
2026-05-04 17:52 38.98332 1.64102 3008 ft 140 kts 247°
2026-05-04 17:53 38.97927 1.62977 3003 ft 137 kts 242°
2026-05-04 17:53 38.97476 1.61921 3001 ft 133 kts 241°
2026-05-04 17:53 38.97035 1.60892 3000 ft 130 kts 242°
2026-05-04 17:53 38.96598 1.59879 3000 ft 129 kts 241°
2026-05-04 17:54 38.96171 1.58877 3002 ft 126 kts 241°
2026-05-04 17:54 38.95897 1.58224 3003 ft 125 kts 242°
2026-05-04 17:54 38.95480 1.57251 3003 ft 124 kts 240°
2026-05-04 17:54 38.95084 1.56268 3005 ft 123 kts 244°
2026-05-04 17:55 38.94707 1.55281 3004 ft 123 kts 243°
2026-05-04 17:55 38.94189 1.53993 3001 ft 121 kts 241°
2026-05-04 17:55 38.93935 1.53342 3004 ft 121 kts 242°
2026-05-04 17:55 38.93549 1.52371 3007 ft 124 kts 242°
2026-05-04 17:56 38.93154 1.51375 3009 ft 127 kts 242°
2026-05-04 17:56 38.92750 1.50377 3010 ft 129 kts 242°
2026-05-04 17:56 38.92365 1.49402 2593 ft 123 kts 242°
2026-05-04 17:56 38.91990 1.48395 2090 ft 127 kts 242°
2026-05-04 17:57 38.91612 1.47457 2010 ft 111 kts 240°
2026-05-04 17:57 38.91262 1.46538 2010 ft 118 kts 242°
2026-05-04 17:57 38.90877 1.45592 1875 ft 119 kts 242°
2026-05-04 17:57 38.90495 1.44649 1605 ft 120 kts 241°
2026-05-04 17:58 38.90105 1.43704 1372 ft 119 kts 239°
2026-05-04 17:58 38.89708 1.42773 1124 ft 119 kts 239°
2026-05-04 17:58 38.89310 1.41810 825 ft 123 kts 237°
2026-05-04 17:58 38.88922 1.40958 716 ft 98 kts 235°
2026-05-04 17:59 38.88570 1.40250 520 ft 92 kts 232°
2026-05-04 17:59 38.88253 1.39588 311 ft 81 kts 235°
2026-05-04 17:59 38.87737 1.38392 47 ft 76 kts 241°
2026-05-04 18:00 38.87548 1.37921 28 ft 38 kts 240°
2026-05-04 18:00 38.87437 1.37671 26 ft 39 kts 238°
2026-05-04 18:00 38.87277 1.37310 29 ft 47 kts 246°
2026-05-04 18:00 38.87164 1.37016 29 ft 29 kts 240°
2026-05-04 18:01 38.87107 1.36862 29 ft 7 kts 266°
2026-05-04 18:01 38.87096 1.36684 27 ft 22 kts 277°
2026-05-04 18:01 38.87117 1.36598 27 ft 0 kts 318°
2026-05-04 18:02 38.87216 1.36698 27 ft 13 kts 63°
2026-05-04 18:02 38.87276 1.36833 27 ft 17 kts 48°
2026-05-04 18:02 38.87324 1.36844 27 ft 1 kts 340°
2026-05-04 18:02 38.87491 1.36721 27 ft 25 kts 314°
2026-05-04 18:03 38.87506 1.36694 27 ft 0 kts 267°
2026-05-04 18:03 38.87502 1.36687 27 ft 0 kts 209°
2026-05-04 18:03 38.87474 1.36670 27 ft 0 kts 139°
2026-05-04 18:03 38.87480 1.36688 27 ft 8 kts 19°
2026-05-04 18:04 38.87488 1.36690 27 ft 0 kts 355°